CST,Max TemperatureF,Mean TemperatureF,Min TemperatureF,Max Dew PointF,MeanDew PointF,Min DewpointF,Max Humidity, Mean Humidity, Min Humidity, Max Sea Level PressureIn, Mean Sea Level PressureIn, Min Sea Level PressureIn, Max VisibilityMiles, Mean VisibilityMiles, Min VisibilityMiles, Max Wind SpeedMPH, Mean Wind SpeedMPH, Max Gust SpeedMPH,PrecipitationIn, CloudCover, Events, WindDirDegrees
2013-12-1,46,37,28,30,29,27,93,74,50,30.15,30.07,29.96,10,9,3,8,3,,0.00,3,,27
2013-12-2,46,40,33,37,33,28,93,78,62,29.95,29.77,29.63,10,7,3,14,5,17,0.00,6,,128
2013-12-3,48,40,32,48,40,32,100,95,87,29.66,29.63,29.57,6,2,0,10,3,21,0.00,7,Fog,126
2013-12-4,55,40,26,52,42,21,100,93,74,29.87,29.63,29.46,10,4,0,24,8,38,0.00,8,Fog-Rain,187
2013-12-5,26,20,15,19,11,9,80,66,58,30.35,30.16,29.87,10,10,5,25,17,32,0.00,4,Rain-Snow,298
2013-12-6,19,14,8,9,3,0,79,65,42,30.65,30.48,30.35,10,10,10,15,12,21,0.00,4,,318
2013-12-7,17,9,1,5,0,-4,85,66,42,30.78,30.67,30.58,10,10,10,12,6,12,0.00,0,,341
2013-12-8,23,18,14,21,14,3,100,80,58,30.56,30.22,30.02,10,6,1,15,9,21,0.01,7,Rain-Snow,80
2013-12-9,21,5,-11,18,1,-17,86,76,57,30.30,30.22,30.03,10,10,4,17,11,24,0.00,1,Snow,262
2013-12-10,21,8,-5,12,5,-9,84,64,53,30.29,30.18,30.03,10,10,10,29,11,36,0.00,3,,245
2013-12-11,19,8,-2,16,1,-9,93,69,48,30.64,30.50,30.26,10,9,2,20,7,25,0.00,3,Rain-Snow,318
2013-12-12,26,10,-5,14,5,-11,92,73,58,30.59,30.37,30.20,10,10,9,14,5,20,0.00,1,,206
2013-12-13,33,19,5,27,17,3,93,84,69,30.20,30.08,30.00,10,7,2,17,3,21,0.00,3,Rain-Snow,59
2013-12-14,28,22,15,27,21,10,93,85,74,30.12,30.05,29.99,10,8,2,17,14,22,0.00,7,Rain-Snow,351
2013-12-15,17,14,10,12,8,1,86,74,62,30.16,30.12,30.10,10,8,2,21,10,21,0.00,7,Snow,311
2013-12-16,24,19,14,21,14,10,93,83,74,30.13,30.09,30.01,10,8,3,12,7,,0.00,8,Snow,118
2013-12-17,37,27,17,27,20,14,93,74,48,30.21,30.12,30.06,10,9,5,28,11,34,0.00,2,,273
2013-12-18,41,26,10,30,20,7,93,73,45,30.20,29.97,29.80,10,10,9,21,4,25,0.00,0,,178
2013-12-19,39,32,24,34,30,23,100,90,75,29.88,29.81,29.75,10,8,1,12,3,13,0.14,3,Rain,43
2013-12-20,35,32,28,34,29,25,100,93,86,29.88,29.81,29.74,10,5,1,18,10,24,0.05,8,Rain,358
2013-12-21,30,28,26,28,26,23,100,91,86,29.88,29.81,29.68,10,6,1,15,9,22,0.01,8,Rain-Snow,4
2013-12-22,30,24,15,28,21,10,100,85,74,30.27,29.95,29.69,10,7,0,18,13,24,0.04,7,Rain-Snow,327
2013-12-23,15,6,-2,9,-4,-11,79,71,61,30.56,30.47,30.27,10,10,10,20,11,22,0.00,2,,281
2013-12-24,19,4,-11,12,-5,-18,86,71,61,30.59,30.48,30.28,10,10,10,12,7,14,0.00,4,,168
2013-12-25,30,24,19,25,21,12,93,83,74,30.27,30.22,30.16,10,8,4,15,10,23,0.00,7,Snow,246
2013-12-26,37,26,14,28,21,10,100,79,65,30.26,30.21,30.12,10,10,10,16,6,18,0.00,3,,198
2013-12-27,41,26,12,32,24,10,100,80,61,30.30,30.20,30.12,10,9,0,12,4,18,0.00,0,,191
2013-12-28,46,40,33,34,31,28,87,72,57,30.12,29.97,29.82,10,10,10,16,9,22,0.00,0,,188
2013-12-29,39,20,1,32,12,-8,93,77,66,30.33,30.11,29.81,10,10,6,26,17,33,0.00,5,Snow,311
2013-12-30,12,5,-2,9,-2,-11,92,73,56,30.37,30.29,30.20,10,8,1,12,5,14,0.00,4,Snow,16
2013-12-31,15,6,-2,10,5,-6,92,83,73,30.37,30.28,30.23,10,10,9,17,5,20,0.00,4,Snow,17